Tracking 29892 objects as of 21-Nov-2024
HD Live streaming from Space Station
objects crossing your sky now

ONEWEB-0280

Track ONEWEB-0280 now!
10-day predictions
ONEWEB-0280 is classified as:


NORAD ID: 48998
Int'l Code: 2021-061AH
Perigee: 1,203.7 km
Apogee: 1,206.1 km
Inclination: 87.9 °
Period: 109.4 minutes
Semi major axis: 7575 km
RCS: Unknown
Launch date: July 1, 2021
Source: United Kingdom (UK)
Launch site: VOSTOCHNY COSMODROME (VOSTO)
Your satellite tracking list
Your tracking list is empty




NASA's NSSDC Master Catalog

Two Line Element Set (TLE):
1 48998U 21060AH  24324.97979499  .00000127  00000-0  29738-3 0  9997
2 48998  87.9092 343.1677 0001612  81.5262 278.6051 13.16596676164000
Source of the keplerian elements: AFSPC